Tracking 18840 objects as of 19-November-2017
HD Live streaming from Space Station
objects crossing your sky now

FENGYUN 1C DEB

Track FENGYUN 1C DEB now!
10-day predictions


NORAD ID: 30937
Int'l Code: 1999-025BAB
Perigee: 863.1 km
Apogee: 974.1 km
Inclination: 99.4 °
Period: 103.2 minutes
Semi major axis: 7289 km
RCS: 0.031 m2 (small)
Launch date: May 10, 1999
Source: People's Republic of China (PRC)
Launch site: Taiyaun Space Center, China (TSC)

Note: This is SATELLITE DEBRIS
aabbcc
Your satellite tracking list
Your tracking list is empty




NASA's NSSDC Master Catalog

Two Line Element Set (TLE):
1 30937U 99025BAB 17322.58773126 +.00000243 +00000-0 +20993-3 0  9996
2 30937 099.3699 316.5850 0076112 137.7111 340.3119 13.94907197546360
Source of the keplerian elements: AFSPC